Index of /20260502/WXO-DD/model_rdps/10km/18/071
Name Last modified Size Description
Parent Directory -
20260502T18Z_MSC_RDPS_AbsoluteVorticity_IsbL-0250_RLatLon0.09_PT071H.grib2 2026-05-02 21:00 601K
20260502T18Z_MSC_RDPS_AbsoluteVorticity_IsbL-0500_RLatLon0.09_PT071H.grib2 2026-05-02 21:00 671K
20260502T18Z_MSC_RDPS_AbsoluteVorticity_IsbL-0700_RLatLon0.09_PT071H.grib2 2026-05-02 21:00 614K
20260502T18Z_MSC_RDPS_AbsoluteVorticity_IsbL-0850_RLatLon0.09_PT071H.grib2 2026-05-02 21:00 796K
20260502T18Z_MSC_RDPS_AirTemp_AGL-120m_RLatLon0.09_PT071H.grib2 2026-05-02 21:00 381K
20260502T18Z_MSC_RDPS_AirTemp_AGL-2m_RLatLon0.09_PT071H.grib2 2026-05-02 21:00 634K
20260502T18Z_MSC_RDPS_AirTemp_AGL-40m_RLatLon0.09_PT071H.grib2 2026-05-02 21:00 406K
20260502T18Z_MSC_RDPS_AirTemp_AGL-80m_RLatLon0.09_PT071H.grib2 2026-05-02 21:00 385K
20260502T18Z_MSC_RDPS_AirTemp_IsbL-0001_RLatLon0.09_PT071H.grib2 2026-05-02 21:00 329K
20260502T18Z_MSC_RDPS_AirTemp_IsbL-0005_RLatLon0.09_PT071H.grib2 2026-05-02 21:00 291K
20260502T18Z_MSC_RDPS_AirTemp_IsbL-0010_RLatLon0.09_PT071H.grib2 2026-05-02 21:00 302K
20260502T18Z_MSC_RDPS_AirTemp_IsbL-0020_RLatLon0.09_PT071H.grib2 2026-05-02 21:00 317K
20260502T18Z_MSC_RDPS_AirTemp_IsbL-0030_RLatLon0.09_PT071H.grib2 2026-05-02 21:00 338K
20260502T18Z_MSC_RDPS_AirTemp_IsbL-0050_RLatLon0.09_PT071H.grib2 2026-05-02 21:00 315K
20260502T18Z_MSC_RDPS_AirTemp_IsbL-0100_RLatLon0.09_PT071H.grib2 2026-05-02 21:00 427K
20260502T18Z_MSC_RDPS_AirTemp_IsbL-0150_RLatLon0.09_PT071H.grib2 2026-05-02 21:00 419K
20260502T18Z_MSC_RDPS_AirTemp_IsbL-0175_RLatLon0.09_PT071H.grib2 2026-05-02 21:00 409K
20260502T18Z_MSC_RDPS_AirTemp_IsbL-0200_RLatLon0.09_PT071H.grib2 2026-05-02 21:00 411K
20260502T18Z_MSC_RDPS_AirTemp_IsbL-0225_RLatLon0.09_PT071H.grib2 2026-05-02 21:00 410K
20260502T18Z_MSC_RDPS_AirTemp_IsbL-0250_RLatLon0.09_PT071H.grib2 2026-05-02 21:00 415K
20260502T18Z_MSC_RDPS_AirTemp_IsbL-0275_RLatLon0.09_PT071H.grib2 2026-05-02 21:00 400K
20260502T18Z_MSC_RDPS_AirTemp_IsbL-0300_RLatLon0.09_PT071H.grib2 2026-05-02 21:00 408K
20260502T18Z_MSC_RDPS_AirTemp_IsbL-0350_RLatLon0.09_PT071H.grib2 2026-05-02 21:00 424K
20260502T18Z_MSC_RDPS_AirTemp_IsbL-0400_RLatLon0.09_PT071H.grib2 2026-05-02 21:00 427K
20260502T18Z_MSC_RDPS_AirTemp_IsbL-0450_RLatLon0.09_PT071H.grib2 2026-05-02 21:00 434K
20260502T18Z_MSC_RDPS_AirTemp_IsbL-0500_RLatLon0.09_PT071H.grib2 2026-05-02 21:00 442K
20260502T18Z_MSC_RDPS_AirTemp_IsbL-0550_RLatLon0.09_PT071H.grib2 2026-05-02 21:00 422K
20260502T18Z_MSC_RDPS_AirTemp_IsbL-0600_RLatLon0.09_PT071H.grib2 2026-05-02 21:00 440K
20260502T18Z_MSC_RDPS_AirTemp_IsbL-0650_RLatLon0.09_PT071H.grib2 2026-05-02 21:00 458K
20260502T18Z_MSC_RDPS_AirTemp_IsbL-0700_RLatLon0.09_PT071H.grib2 2026-05-02 21:00 485K
20260502T18Z_MSC_RDPS_AirTemp_IsbL-0750_RLatLon0.09_PT071H.grib2 2026-05-02 21:00 527K
20260502T18Z_MSC_RDPS_AirTemp_IsbL-0800_RLatLon0.09_PT071H.grib2 2026-05-02 21:00 585K
20260502T18Z_MSC_RDPS_AirTemp_IsbL-0850_RLatLon0.09_PT071H.grib2 2026-05-02 21:00 645K
20260502T18Z_MSC_RDPS_AirTemp_IsbL-0875_RLatLon0.09_PT071H.grib2 2026-05-02 21:00 533K
20260502T18Z_MSC_RDPS_AirTemp_IsbL-0900_RLatLon0.09_PT071H.grib2 2026-05-02 21:00 541K
20260502T18Z_MSC_RDPS_AirTemp_IsbL-0925_RLatLon0.09_PT071H.grib2 2026-05-02 21:00 535K
20260502T18Z_MSC_RDPS_AirTemp_IsbL-0950_RLatLon0.09_PT071H.grib2 2026-05-02 21:00 533K
20260502T18Z_MSC_RDPS_AirTemp_IsbL-0970_RLatLon0.09_PT071H.grib2 2026-05-02 21:00 527K
20260502T18Z_MSC_RDPS_AirTemp_IsbL-0985_RLatLon0.09_PT071H.grib2 2026-05-02 21:00 515K
20260502T18Z_MSC_RDPS_AirTemp_IsbL-1000_RLatLon0.09_PT071H.grib2 2026-05-02 21:00 500K
20260502T18Z_MSC_RDPS_AirTemp_IsbL-1015_RLatLon0.09_PT071H.grib2 2026-05-02 21:00 507K
20260502T18Z_MSC_RDPS_Albedo_Sfc_RLatLon0.09_PT071H.grib2 2026-05-02 21:00 156K
20260502T18Z_MSC_RDPS_CAPE_Sfc_RLatLon0.09_PT071H.grib2 2026-05-02 21:00 1.8M
20260502T18Z_MSC_RDPS_CIN_Sfc_RLatLon0.09_PT071H.grib2 2026-05-02 21:00 1.2M
20260502T18Z_MSC_RDPS_CloudWater_EAtm_RLatLon0.09_PT071H.grib2 2026-05-02 21:00 221K
20260502T18Z_MSC_RDPS_ConvectivePrecip-Accum_Sfc_RLatLon0.09_PT071H.grib2 2026-05-02 21:00 1.2M
20260502T18Z_MSC_RDPS_DewPointDepression_AGL-2m_RLatLon0.09_PT071H.grib2 2026-05-02 21:00 423K
20260502T18Z_MSC_RDPS_DewPointDepression_IsbL-0001_RLatLon0.09_PT071H.grib2 2026-05-02 21:00 193
20260502T18Z_MSC_RDPS_DewPointDepression_IsbL-0005_RLatLon0.09_PT071H.grib2 2026-05-02 21:00 193
20260502T18Z_MSC_RDPS_DewPointDepression_IsbL-0010_RLatLon0.09_PT071H.grib2 2026-05-02 21:00 193
20260502T18Z_MSC_RDPS_DewPointDepression_IsbL-0020_RLatLon0.09_PT071H.grib2 2026-05-02 21:00 193
20260502T18Z_MSC_RDPS_DewPointDepression_IsbL-0030_RLatLon0.09_PT071H.grib2 2026-05-02 21:00 193
20260502T18Z_MSC_RDPS_DewPointDepression_IsbL-0050_RLatLon0.09_PT071H.grib2 2026-05-02 21:00 78K
20260502T18Z_MSC_RDPS_DewPointDepression_IsbL-0100_RLatLon0.09_PT071H.grib2 2026-05-02 21:00 113K
20260502T18Z_MSC_RDPS_DewPointDepression_IsbL-0150_RLatLon0.09_PT071H.grib2 2026-05-02 21:00 146K
20260502T18Z_MSC_RDPS_DewPointDepression_IsbL-0175_RLatLon0.09_PT071H.grib2 2026-05-02 21:00 184K
20260502T18Z_MSC_RDPS_DewPointDepression_IsbL-0200_RLatLon0.09_PT071H.grib2 2026-05-02 21:00 219K
20260502T18Z_MSC_RDPS_DewPointDepression_IsbL-0225_RLatLon0.09_PT071H.grib2 2026-05-02 21:00 249K
20260502T18Z_MSC_RDPS_DewPointDepression_IsbL-0250_RLatLon0.09_PT071H.grib2 2026-05-02 21:00 289K
20260502T18Z_MSC_RDPS_DewPointDepression_IsbL-0275_RLatLon0.09_PT071H.grib2 2026-05-02 21:00 299K
20260502T18Z_MSC_RDPS_DewPointDepression_IsbL-0300_RLatLon0.09_PT071H.grib2 2026-05-02 21:00 316K
20260502T18Z_MSC_RDPS_DewPointDepression_IsbL-0350_RLatLon0.09_PT071H.grib2 2026-05-02 21:00 322K
20260502T18Z_MSC_RDPS_DewPointDepression_IsbL-0400_RLatLon0.09_PT071H.grib2 2026-05-02 21:00 334K
20260502T18Z_MSC_RDPS_DewPointDepression_IsbL-0450_RLatLon0.09_PT071H.grib2 2026-05-02 21:00 336K
20260502T18Z_MSC_RDPS_DewPointDepression_IsbL-0500_RLatLon0.09_PT071H.grib2 2026-05-02 21:00 340K
20260502T18Z_MSC_RDPS_DewPointDepression_IsbL-0550_RLatLon0.09_PT071H.grib2 2026-05-02 21:00 351K
20260502T18Z_MSC_RDPS_DewPointDepression_IsbL-0600_RLatLon0.09_PT071H.grib2 2026-05-02 21:00 360K
20260502T18Z_MSC_RDPS_DewPointDepression_IsbL-0650_RLatLon0.09_PT071H.grib2 2026-05-02 21:00 368K
20260502T18Z_MSC_RDPS_DewPointDepression_IsbL-0700_RLatLon0.09_PT071H.grib2 2026-05-02 21:00 384K
20260502T18Z_MSC_RDPS_DewPointDepression_IsbL-0750_RLatLon0.09_PT071H.grib2 2026-05-02 21:00 409K
20260502T18Z_MSC_RDPS_DewPointDepression_IsbL-0800_RLatLon0.09_PT071H.grib2 2026-05-02 21:00 445K
20260502T18Z_MSC_RDPS_DewPointDepression_IsbL-0850_RLatLon0.09_PT071H.grib2 2026-05-02 21:00 480K
20260502T18Z_MSC_RDPS_DewPointDepression_IsbL-0875_RLatLon0.09_PT071H.grib2 2026-05-02 21:00 478K
20260502T18Z_MSC_RDPS_DewPointDepression_IsbL-0900_RLatLon0.09_PT071H.grib2 2026-05-02 21:00 470K
20260502T18Z_MSC_RDPS_DewPointDepression_IsbL-0925_RLatLon0.09_PT071H.grib2 2026-05-02 21:00 456K
20260502T18Z_MSC_RDPS_DewPointDepression_IsbL-0950_RLatLon0.09_PT071H.grib2 2026-05-02 21:00 448K
20260502T18Z_MSC_RDPS_DewPointDepression_IsbL-0970_RLatLon0.09_PT071H.grib2 2026-05-02 21:00 443K
20260502T18Z_MSC_RDPS_DewPointDepression_IsbL-0985_RLatLon0.09_PT071H.grib2 2026-05-02 21:00 442K
20260502T18Z_MSC_RDPS_DewPointDepression_IsbL-1000_RLatLon0.09_PT071H.grib2 2026-05-02 21:00 438K
20260502T18Z_MSC_RDPS_DewPointDepression_IsbL-1015_RLatLon0.09_PT071H.grib2 2026-05-02 21:00 432K
20260502T18Z_MSC_RDPS_DewPoint_AGL-2m_RLatLon0.09_PT071H.grib2 2026-05-02 21:00 400K
20260502T18Z_MSC_RDPS_DownwardLongwaveRadiationFlux-Accum_Sfc_RLatLon0.09_PT071H.grib2 2026-05-02 21:00 425K
20260502T18Z_MSC_RDPS_DownwardShortwaveRadiationFlux-Accum_NTAtm_RLatLon0.09_PT071H.grib2 2026-05-02 21:00 130K
20260502T18Z_MSC_RDPS_DownwardShortwaveRadiationFlux-Accum_Sfc_RLatLon0.09_PT071H.grib2 2026-05-02 21:00 625K
20260502T18Z_MSC_RDPS_FreezingRain-Accum1h_Sfc_RLatLon0.09_PT071H.grib2 2026-05-02 21:00 28K
20260502T18Z_MSC_RDPS_FreezingRain-Accum_Sfc_RLatLon0.09_PT071H.grib2 2026-05-02 21:00 198K
20260502T18Z_MSC_RDPS_GeopotentialHeight_IsbL-0001_RLatLon0.09_PT071H.grib2 2026-05-02 21:00 355K
20260502T18Z_MSC_RDPS_GeopotentialHeight_IsbL-0005_RLatLon0.09_PT071H.grib2 2026-05-02 21:00 311K
20260502T18Z_MSC_RDPS_GeopotentialHeight_IsbL-0010_RLatLon0.09_PT071H.grib2 2026-05-02 21:00 310K
20260502T18Z_MSC_RDPS_GeopotentialHeight_IsbL-0020_RLatLon0.09_PT071H.grib2 2026-05-02 21:00 310K
20260502T18Z_MSC_RDPS_GeopotentialHeight_IsbL-0030_RLatLon0.09_PT071H.grib2 2026-05-02 21:00 410K
20260502T18Z_MSC_RDPS_GeopotentialHeight_IsbL-0050_RLatLon0.09_PT071H.grib2 2026-05-02 21:00 312K
20260502T18Z_MSC_RDPS_GeopotentialHeight_IsbL-0100_RLatLon0.09_PT071H.grib2 2026-05-02 21:00 286K
20260502T18Z_MSC_RDPS_GeopotentialHeight_IsbL-0150_RLatLon0.09_PT071H.grib2 2026-05-02 21:00 230K
20260502T18Z_MSC_RDPS_GeopotentialHeight_IsbL-0175_RLatLon0.09_PT071H.grib2 2026-05-02 21:00 232K
20260502T18Z_MSC_RDPS_GeopotentialHeight_IsbL-0200_RLatLon0.09_PT071H.grib2 2026-05-02 21:00 235K
20260502T18Z_MSC_RDPS_GeopotentialHeight_IsbL-0225_RLatLon0.09_PT071H.grib2 2026-05-02 21:00 236K
20260502T18Z_MSC_RDPS_GeopotentialHeight_IsbL-0250_RLatLon0.09_PT071H.grib2 2026-05-02 21:00 237K
20260502T18Z_MSC_RDPS_GeopotentialHeight_IsbL-0275_RLatLon0.09_PT071H.grib2 2026-05-02 21:00 236K
20260502T18Z_MSC_RDPS_GeopotentialHeight_IsbL-0300_RLatLon0.09_PT071H.grib2 2026-05-02 21:00 236K
20260502T18Z_MSC_RDPS_GeopotentialHeight_IsbL-0350_RLatLon0.09_PT071H.grib2 2026-05-02 21:00 232K
20260502T18Z_MSC_RDPS_GeopotentialHeight_IsbL-0400_RLatLon0.09_PT071H.grib2 2026-05-02 21:00 229K
20260502T18Z_MSC_RDPS_GeopotentialHeight_IsbL-0450_RLatLon0.09_PT071H.grib2 2026-05-02 21:00 298K
20260502T18Z_MSC_RDPS_GeopotentialHeight_IsbL-0500_RLatLon0.09_PT071H.grib2 2026-05-02 21:00 294K
20260502T18Z_MSC_RDPS_GeopotentialHeight_IsbL-0550_RLatLon0.09_PT071H.grib2 2026-05-02 21:00 291K
20260502T18Z_MSC_RDPS_GeopotentialHeight_IsbL-0600_RLatLon0.09_PT071H.grib2 2026-05-02 21:00 261K
20260502T18Z_MSC_RDPS_GeopotentialHeight_IsbL-0650_RLatLon0.09_PT071H.grib2 2026-05-02 21:00 259K
20260502T18Z_MSC_RDPS_GeopotentialHeight_IsbL-0700_RLatLon0.09_PT071H.grib2 2026-05-02 21:00 258K
20260502T18Z_MSC_RDPS_GeopotentialHeight_IsbL-0750_RLatLon0.09_PT071H.grib2 2026-05-02 21:00 345K
20260502T18Z_MSC_RDPS_GeopotentialHeight_IsbL-0800_RLatLon0.09_PT071H.grib2 2026-05-02 21:00 355K
20260502T18Z_MSC_RDPS_GeopotentialHeight_IsbL-0850_RLatLon0.09_PT071H.grib2 2026-05-02 21:00 366K
20260502T18Z_MSC_RDPS_GeopotentialHeight_IsbL-0875_RLatLon0.09_PT071H.grib2 2026-05-02 21:00 369K
20260502T18Z_MSC_RDPS_GeopotentialHeight_IsbL-0900_RLatLon0.09_PT071H.grib2 2026-05-02 21:00 371K
20260502T18Z_MSC_RDPS_GeopotentialHeight_IsbL-0925_RLatLon0.09_PT071H.grib2 2026-05-02 21:00 371K
20260502T18Z_MSC_RDPS_GeopotentialHeight_IsbL-0950_RLatLon0.09_PT071H.grib2 2026-05-02 21:00 374K
20260502T18Z_MSC_RDPS_GeopotentialHeight_IsbL-0970_RLatLon0.09_PT071H.grib2 2026-05-02 21:00 381K
20260502T18Z_MSC_RDPS_GeopotentialHeight_IsbL-0985_RLatLon0.09_PT071H.grib2 2026-05-02 21:00 390K
20260502T18Z_MSC_RDPS_GeopotentialHeight_IsbL-1000_RLatLon0.09_PT071H.grib2 2026-05-02 21:00 309K
20260502T18Z_MSC_RDPS_GeopotentialHeight_IsbL-1015_RLatLon0.09_PT071H.grib2 2026-05-02 21:00 321K
20260502T18Z_MSC_RDPS_Humidex_Sfc_RLatLon0.09_PT071H.grib2 2026-05-02 21:00 2.4M
20260502T18Z_MSC_RDPS_IcePellets-Accum1h_Sfc_RLatLon0.09_PT071H.grib2 2026-05-02 21:00 8.9K
20260502T18Z_MSC_RDPS_IcePellets-Accum_Sfc_RLatLon0.09_PT071H.grib2 2026-05-02 21:00 37K
20260502T18Z_MSC_RDPS_KIndex_Sfc_RLatLon0.09_PT071H.grib2 2026-05-02 21:00 2.5M
20260502T18Z_MSC_RDPS_LatentHeatNetFlux_Sfc_RLatLon0.09_PT071H.grib2 2026-05-02 21:00 316K
20260502T18Z_MSC_RDPS_LiftedIndex-MU-VT_IsbL-0500_RLatLon0.09_PT071H.grib2 2026-05-02 21:00 2.4M
20260502T18Z_MSC_RDPS_NetLongwaveRadiationFlux-Accum_Sfc_RLatLon0.09_PT071H.grib2 2026-05-02 21:00 474K
20260502T18Z_MSC_RDPS_NetShortwaveRadiationFlux-Accum_Sfc_RLatLon0.09_PT071H.grib2 2026-05-02 21:00 625K
20260502T18Z_MSC_RDPS_PlanetaryBoundaryLayerHeight_Sfc_RLatLon0.09_PT071H.grib2 2026-05-02 21:00 1.2M
20260502T18Z_MSC_RDPS_Precip-Accum1h_Sfc_RLatLon0.09_PT071H.grib2 2026-05-02 21:00 1.3M
20260502T18Z_MSC_RDPS_Precip-Accum_Sfc_RLatLon0.09_PT071H.grib2 2026-05-02 21:00 2.2M
20260502T18Z_MSC_RDPS_PrecipRate_Sfc_RLatLon0.09_PT071H.grib2 2026-05-02 21:00 247K
20260502T18Z_MSC_RDPS_PrecipType-Instant_Sfc_RLatLon0.09_PT071H.grib2 2026-05-02 21:00 582K
20260502T18Z_MSC_RDPS_Pressure-Trend3h_Sfc_RLatLon0.09_PT071H.grib2 2026-05-02 21:00 1.2M
20260502T18Z_MSC_RDPS_Pressure_MSL_RLatLon0.09_PT071H.grib2 2026-05-02 21:00 333K
20260502T18Z_MSC_RDPS_Pressure_PVU-1.5_RLatLon0.09_PT071H.grib2 2026-05-02 21:00 2.3M
20260502T18Z_MSC_RDPS_Pressure_PVU-1_RLatLon0.09_PT071H.grib2 2026-05-02 21:00 2.4M
20260502T18Z_MSC_RDPS_Pressure_PVU-2_RLatLon0.09_PT071H.grib2 2026-05-02 21:00 2.4M
20260502T18Z_MSC_RDPS_Pressure_Sfc_RLatLon0.09_PT071H.grib2 2026-05-02 21:00 499K
20260502T18Z_MSC_RDPS_RadiativeTemp_Sfc_RLatLon0.09_PT071H.grib2 2026-05-02 21:00 320K
20260502T18Z_MSC_RDPS_Rain-Accum1h_Sfc_RLatLon0.09_PT071H.grib2 2026-05-02 21:00 736K
20260502T18Z_MSC_RDPS_Rain-Accum_Sfc_RLatLon0.09_PT071H.grib2 2026-05-02 21:00 1.8M
20260502T18Z_MSC_RDPS_RelativeHumidity_AGL-2m_RLatLon0.09_PT071H.grib2 2026-05-02 21:00 1.0M
20260502T18Z_MSC_RDPS_RelativeHumidity_IsbL-0010_RLatLon0.09_PT071H.grib2 2026-05-02 21:00 686K
20260502T18Z_MSC_RDPS_RelativeHumidity_IsbL-0020_RLatLon0.09_PT071H.grib2 2026-05-02 21:00 656K
20260502T18Z_MSC_RDPS_RelativeHumidity_IsbL-0030_RLatLon0.09_PT071H.grib2 2026-05-02 21:00 600K
20260502T18Z_MSC_RDPS_RelativeHumidity_IsbL-0050_RLatLon0.09_PT071H.grib2 2026-05-02 21:00 359K
20260502T18Z_MSC_RDPS_RelativeHumidity_IsbL-0100_RLatLon0.09_PT071H.grib2 2026-05-02 21:00 275K
20260502T18Z_MSC_RDPS_RelativeHumidity_IsbL-0150_RLatLon0.09_PT071H.grib2 2026-05-02 21:00 422K
20260502T18Z_MSC_RDPS_RelativeHumidity_IsbL-0175_RLatLon0.09_PT071H.grib2 2026-05-02 21:00 486K
20260502T18Z_MSC_RDPS_RelativeHumidity_IsbL-0200_RLatLon0.09_PT071H.grib2 2026-05-02 21:00 557K
20260502T18Z_MSC_RDPS_RelativeHumidity_IsbL-0225_RLatLon0.09_PT071H.grib2 2026-05-02 21:00 610K
20260502T18Z_MSC_RDPS_RelativeHumidity_IsbL-0250_RLatLon0.09_PT071H.grib2 2026-05-02 21:00 665K
20260502T18Z_MSC_RDPS_RelativeHumidity_IsbL-0275_RLatLon0.09_PT071H.grib2 2026-05-02 21:00 691K
20260502T18Z_MSC_RDPS_RelativeHumidity_IsbL-0300_RLatLon0.09_PT071H.grib2 2026-05-02 21:00 735K
20260502T18Z_MSC_RDPS_RelativeHumidity_IsbL-0350_RLatLon0.09_PT071H.grib2 2026-05-02 21:00 760K
20260502T18Z_MSC_RDPS_RelativeHumidity_IsbL-0400_RLatLon0.09_PT071H.grib2 2026-05-02 21:00 779K
20260502T18Z_MSC_RDPS_RelativeHumidity_IsbL-0450_RLatLon0.09_PT071H.grib2 2026-05-02 21:00 781K
20260502T18Z_MSC_RDPS_RelativeHumidity_IsbL-0500_RLatLon0.09_PT071H.grib2 2026-05-02 21:00 784K
20260502T18Z_MSC_RDPS_RelativeHumidity_IsbL-0550_RLatLon0.09_PT071H.grib2 2026-05-02 21:00 811K
20260502T18Z_MSC_RDPS_RelativeHumidity_IsbL-0600_RLatLon0.09_PT071H.grib2 2026-05-02 21:00 829K
20260502T18Z_MSC_RDPS_RelativeHumidity_IsbL-0650_RLatLon0.09_PT071H.grib2 2026-05-02 21:00 845K
20260502T18Z_MSC_RDPS_RelativeHumidity_IsbL-0700_RLatLon0.09_PT071H.grib2 2026-05-02 21:00 865K
20260502T18Z_MSC_RDPS_RelativeHumidity_IsbL-0750_RLatLon0.09_PT071H.grib2 2026-05-02 21:00 915K
20260502T18Z_MSC_RDPS_RelativeHumidity_IsbL-0800_RLatLon0.09_PT071H.grib2 2026-05-02 21:00 1.0M
20260502T18Z_MSC_RDPS_RelativeHumidity_IsbL-0850_RLatLon0.09_PT071H.grib2 2026-05-02 21:00 1.0M
20260502T18Z_MSC_RDPS_RelativeHumidity_IsbL-0875_RLatLon0.09_PT071H.grib2 2026-05-02 21:00 1.1M
20260502T18Z_MSC_RDPS_RelativeHumidity_IsbL-0900_RLatLon0.09_PT071H.grib2 2026-05-02 21:00 1.1M
20260502T18Z_MSC_RDPS_RelativeHumidity_IsbL-0925_RLatLon0.09_PT071H.grib2 2026-05-02 21:00 1.1M
20260502T18Z_MSC_RDPS_RelativeHumidity_IsbL-0950_RLatLon0.09_PT071H.grib2 2026-05-02 21:00 1.1M
20260502T18Z_MSC_RDPS_RelativeHumidity_IsbL-0970_RLatLon0.09_PT071H.grib2 2026-05-02 21:00 1.1M
20260502T18Z_MSC_RDPS_RelativeHumidity_IsbL-0985_RLatLon0.09_PT071H.grib2 2026-05-02 21:00 1.0M
20260502T18Z_MSC_RDPS_RelativeHumidity_IsbL-1000_RLatLon0.09_PT071H.grib2 2026-05-02 21:00 1.0M
20260502T18Z_MSC_RDPS_RelativeHumidity_IsbL-1015_RLatLon0.09_PT071H.grib2 2026-05-02 21:00 1.0M
20260502T18Z_MSC_RDPS_Runoff-Accum_Sfc_RLatLon0.09_PT071H.grib2 2026-05-02 21:00 65K
20260502T18Z_MSC_RDPS_SWEATIndex_Sfc_RLatLon0.09_PT071H.grib2 2026-05-02 21:00 2.4M
20260502T18Z_MSC_RDPS_SeeingIndex_EAtm_RLatLon0.09_PT071H.grib2 2026-05-02 21:00 1.0M
20260502T18Z_MSC_RDPS_SensibleHeatNetFlux_Sfc_RLatLon0.09_PT071H.grib2 2026-05-02 21:00 372K
20260502T18Z_MSC_RDPS_ShowalterIndex_IsbL-0500_RLatLon0.09_PT071H.grib2 2026-05-02 21:00 2.6M
20260502T18Z_MSC_RDPS_SkyTransparencyIndex_EAtm_RLatLon0.09_PT071H.grib2 2026-05-02 21:00 684K
20260502T18Z_MSC_RDPS_Snow-Accum1h_Sfc_RLatLon0.09_PT071H.grib2 2026-05-02 21:00 483K
20260502T18Z_MSC_RDPS_Snow-Accum_Sfc_RLatLon0.09_PT071H.grib2 2026-05-02 21:00 798K
20260502T18Z_MSC_RDPS_SnowDensity_Sfc_RLatLon0.09_PT071H.grib2 2026-05-02 21:00 176K
20260502T18Z_MSC_RDPS_SnowDepth_Sfc_RLatLon0.09_PT071H.grib2 2026-05-02 21:00 659K
20260502T18Z_MSC_RDPS_SoilTemp_DBS-0to10cm_RLatLon0.09_PT071H.grib2 2026-05-02 21:00 245K
20260502T18Z_MSC_RDPS_SoilTemp_Sfc_RLatLon0.09_PT071H.grib2 2026-05-02 21:00 292K
20260502T18Z_MSC_RDPS_SoilVolumetricIceContent_Sfc_RLatLon0.09_PT071H.grib2 2026-05-02 21:00 153K
20260502T18Z_MSC_RDPS_SoilVolumetricWaterContent_DBS-0to10cm_RLatLon0.09_PT071H.grib2 2026-05-02 21:00 278K
20260502T18Z_MSC_RDPS_SoilVolumetricWaterContent_DBS-0to1cm_RLatLon0.09_PT071H.grib2 2026-05-02 21:00 343K
20260502T18Z_MSC_RDPS_SpecificHumidity_AGL-120m_RLatLon0.09_PT071H.grib2 2026-05-02 21:00 502K
20260502T18Z_MSC_RDPS_SpecificHumidity_AGL-2m_RLatLon0.09_PT071H.grib2 2026-05-02 21:00 674K
20260502T18Z_MSC_RDPS_SpecificHumidity_AGL-40m_RLatLon0.09_PT071H.grib2 2026-05-02 21:00 507K
20260502T18Z_MSC_RDPS_SpecificHumidity_AGL-80m_RLatLon0.09_PT071H.grib2 2026-05-02 21:00 503K
20260502T18Z_MSC_RDPS_SpecificHumidity_IsbL-0001_RLatLon0.09_PT071H.grib2 2026-05-02 21:00 378K
20260502T18Z_MSC_RDPS_SpecificHumidity_IsbL-0005_RLatLon0.09_PT071H.grib2 2026-05-02 21:00 363K
20260502T18Z_MSC_RDPS_SpecificHumidity_IsbL-0010_RLatLon0.09_PT071H.grib2 2026-05-02 21:00 395K
20260502T18Z_MSC_RDPS_SpecificHumidity_IsbL-0020_RLatLon0.09_PT071H.grib2 2026-05-02 21:00 373K
20260502T18Z_MSC_RDPS_SpecificHumidity_IsbL-0030_RLatLon0.09_PT071H.grib2 2026-05-02 21:00 368K
20260502T18Z_MSC_RDPS_SpecificHumidity_IsbL-0050_RLatLon0.09_PT071H.grib2 2026-05-02 21:00 443K
20260502T18Z_MSC_RDPS_SpecificHumidity_IsbL-0100_RLatLon0.09_PT071H.grib2 2026-05-02 21:00 412K
20260502T18Z_MSC_RDPS_SpecificHumidity_IsbL-0150_RLatLon0.09_PT071H.grib2 2026-05-02 21:00 454K
20260502T18Z_MSC_RDPS_SpecificHumidity_IsbL-0175_RLatLon0.09_PT071H.grib2 2026-05-02 21:00 447K
20260502T18Z_MSC_RDPS_SpecificHumidity_IsbL-0200_RLatLon0.09_PT071H.grib2 2026-05-02 21:00 460K
20260502T18Z_MSC_RDPS_SpecificHumidity_IsbL-0225_RLatLon0.09_PT071H.grib2 2026-05-02 21:00 451K
20260502T18Z_MSC_RDPS_SpecificHumidity_IsbL-0250_RLatLon0.09_PT071H.grib2 2026-05-02 21:00 549K
20260502T18Z_MSC_RDPS_SpecificHumidity_IsbL-0275_RLatLon0.09_PT071H.grib2 2026-05-02 21:00 465K
20260502T18Z_MSC_RDPS_SpecificHumidity_IsbL-0300_RLatLon0.09_PT071H.grib2 2026-05-02 21:00 537K
20260502T18Z_MSC_RDPS_SpecificHumidity_IsbL-0350_RLatLon0.09_PT071H.grib2 2026-05-02 21:00 533K
20260502T18Z_MSC_RDPS_SpecificHumidity_IsbL-0400_RLatLon0.09_PT071H.grib2 2026-05-02 21:00 516K
20260502T18Z_MSC_RDPS_SpecificHumidity_IsbL-0450_RLatLon0.09_PT071H.grib2 2026-05-02 21:00 602K
20260502T18Z_MSC_RDPS_SpecificHumidity_IsbL-0500_RLatLon0.09_PT071H.grib2 2026-05-02 21:00 495K
20260502T18Z_MSC_RDPS_SpecificHumidity_IsbL-0550_RLatLon0.09_PT071H.grib2 2026-05-02 21:00 550K
20260502T18Z_MSC_RDPS_SpecificHumidity_IsbL-0600_RLatLon0.09_PT071H.grib2 2026-05-02 21:00 616K
20260502T18Z_MSC_RDPS_SpecificHumidity_IsbL-0650_RLatLon0.09_PT071H.grib2 2026-05-02 21:00 536K
20260502T18Z_MSC_RDPS_SpecificHumidity_IsbL-0700_RLatLon0.09_PT071H.grib2 2026-05-02 21:00 584K
20260502T18Z_MSC_RDPS_SpecificHumidity_IsbL-0750_RLatLon0.09_PT071H.grib2 2026-05-02 21:00 647K
20260502T18Z_MSC_RDPS_SpecificHumidity_IsbL-0800_RLatLon0.09_PT071H.grib2 2026-05-02 21:00 732K
20260502T18Z_MSC_RDPS_SpecificHumidity_IsbL-0850_RLatLon0.09_PT071H.grib2 2026-05-02 21:00 817K
20260502T18Z_MSC_RDPS_SpecificHumidity_IsbL-0875_RLatLon0.09_PT071H.grib2 2026-05-02 21:00 841K
20260502T18Z_MSC_RDPS_SpecificHumidity_IsbL-0900_RLatLon0.09_PT071H.grib2 2026-05-02 21:00 712K
20260502T18Z_MSC_RDPS_SpecificHumidity_IsbL-0925_RLatLon0.09_PT071H.grib2 2026-05-02 21:00 712K
20260502T18Z_MSC_RDPS_SpecificHumidity_IsbL-0950_RLatLon0.09_PT071H.grib2 2026-05-02 21:00 711K
20260502T18Z_MSC_RDPS_SpecificHumidity_IsbL-0970_RLatLon0.09_PT071H.grib2 2026-05-02 21:00 707K
20260502T18Z_MSC_RDPS_SpecificHumidity_IsbL-0985_RLatLon0.09_PT071H.grib2 2026-05-02 21:00 704K
20260502T18Z_MSC_RDPS_SpecificHumidity_IsbL-1000_RLatLon0.09_PT071H.grib2 2026-05-02 21:00 699K
20260502T18Z_MSC_RDPS_SpecificHumidity_IsbL-1015_RLatLon0.09_PT071H.grib2 2026-05-02 21:00 691K
20260502T18Z_MSC_RDPS_SpecificHumidity_Sfc_RLatLon0.09_PT071H.grib2 2026-05-02 21:00 339K
20260502T18Z_MSC_RDPS_StormRelativeHelicity_EtaL-10000_RLatLon0.09_PT071H.grib2 2026-05-02 21:00 1.1M
20260502T18Z_MSC_RDPS_StormSeverityIndex_EtaL-10000_RLatLon0.09_PT071H.grib2 2026-05-02 21:00 1.1M
20260502T18Z_MSC_RDPS_Thickness_IsbL-0850to0700_RLatLon0.09_PT071H.grib2 2026-05-02 21:00 179K
20260502T18Z_MSC_RDPS_Thickness_IsbL-1000to0500_RLatLon0.09_PT071H.grib2 2026-05-02 21:00 202K
20260502T18Z_MSC_RDPS_Thickness_IsbL-1000to0850_RLatLon0.09_PT071H.grib2 2026-05-02 21:00 267K
20260502T18Z_MSC_RDPS_TotalCloudCover_Sfc_RLatLon0.09_PT071H.grib2 2026-05-02 21:00 651K
20260502T18Z_MSC_RDPS_TotalTotalsIndex_Sfc_RLatLon0.09_PT071H.grib2 2026-05-02 21:00 2.5M
20260502T18Z_MSC_RDPS_UVIndex-ClearSky_Sfc_RLatLon0.09_PT071H.grib2 2026-05-02 21:00 223K
20260502T18Z_MSC_RDPS_UVIndex_Sfc_RLatLon0.09_PT071H.grib2 2026-05-02 21:00 525K
20260502T18Z_MSC_RDPS_UpwardLongwaveRadiationFlux_NTAtm_RLatLon0.09_PT071H.grib2 2026-05-02 21:00 486K
20260502T18Z_MSC_RDPS_UpwardShortwaveRadiationFlux_NTAtm_RLatLon0.09_PT071H.grib2 2026-05-02 21:00 556K
20260502T18Z_MSC_RDPS_VerticalVelocity_IsbL-0250_RLatLon0.09_PT071H.grib2 2026-05-02 21:00 582K
20260502T18Z_MSC_RDPS_VerticalVelocity_IsbL-0500_RLatLon0.09_PT071H.grib2 2026-05-02 21:00 550K
20260502T18Z_MSC_RDPS_VerticalVelocity_IsbL-0700_RLatLon0.09_PT071H.grib2 2026-05-02 21:00 601K
20260502T18Z_MSC_RDPS_VerticalVelocity_IsbL-0850_RLatLon0.09_PT071H.grib2 2026-05-02 21:00 709K
20260502T18Z_MSC_RDPS_VerticalWindShear_EtaL-6500_RLatLon0.09_PT071H.grib2 2026-05-02 21:00 1.2M
20260502T18Z_MSC_RDPS_WindChill_Sfc_RLatLon0.09_PT071H.grib2 2026-05-02 21:00 1.2M
20260502T18Z_MSC_RDPS_WindDir_AGL-10m_RLatLon0.09_PT071H.grib2 2026-05-02 21:00 953K
20260502T18Z_MSC_RDPS_WindDir_AGL-120m_RLatLon0.09_PT071H.grib2 2026-05-02 21:00 599K
20260502T18Z_MSC_RDPS_WindDir_AGL-40m_RLatLon0.09_PT071H.grib2 2026-05-02 21:00 620K
20260502T18Z_MSC_RDPS_WindDir_AGL-80m_RLatLon0.09_PT071H.grib2 2026-05-02 21:00 608K
20260502T18Z_MSC_RDPS_WindDir_IsbL-0001_RLatLon0.09_PT071H.grib2 2026-05-02 21:00 315K
20260502T18Z_MSC_RDPS_WindDir_IsbL-0005_RLatLon0.09_PT071H.grib2 2026-05-02 21:00 388K
20260502T18Z_MSC_RDPS_WindDir_IsbL-0010_RLatLon0.09_PT071H.grib2 2026-05-02 21:00 396K
20260502T18Z_MSC_RDPS_WindDir_IsbL-0020_RLatLon0.09_PT071H.grib2 2026-05-02 21:00 412K
20260502T18Z_MSC_RDPS_WindDir_IsbL-0030_RLatLon0.09_PT071H.grib2 2026-05-02 21:00 424K
20260502T18Z_MSC_RDPS_WindDir_IsbL-0050_RLatLon0.09_PT071H.grib2 2026-05-02 21:00 429K
20260502T18Z_MSC_RDPS_WindDir_IsbL-0100_RLatLon0.09_PT071H.grib2 2026-05-02 21:00 423K
20260502T18Z_MSC_RDPS_WindDir_IsbL-0150_RLatLon0.09_PT071H.grib2 2026-05-02 21:00 405K
20260502T18Z_MSC_RDPS_WindDir_IsbL-0175_RLatLon0.09_PT071H.grib2 2026-05-02 21:00 435K
20260502T18Z_MSC_RDPS_WindDir_IsbL-0200_RLatLon0.09_PT071H.grib2 2026-05-02 21:00 446K
20260502T18Z_MSC_RDPS_WindDir_IsbL-0225_RLatLon0.09_PT071H.grib2 2026-05-02 21:00 447K
20260502T18Z_MSC_RDPS_WindDir_IsbL-0250_RLatLon0.09_PT071H.grib2 2026-05-02 21:00 449K
20260502T18Z_MSC_RDPS_WindDir_IsbL-0275_RLatLon0.09_PT071H.grib2 2026-05-02 21:00 471K
20260502T18Z_MSC_RDPS_WindDir_IsbL-0300_RLatLon0.09_PT071H.grib2 2026-05-02 21:00 470K
20260502T18Z_MSC_RDPS_WindDir_IsbL-0350_RLatLon0.09_PT071H.grib2 2026-05-02 21:00 490K
20260502T18Z_MSC_RDPS_WindDir_IsbL-0400_RLatLon0.09_PT071H.grib2 2026-05-02 21:00 510K
20260502T18Z_MSC_RDPS_WindDir_IsbL-0450_RLatLon0.09_PT071H.grib2 2026-05-02 21:00 532K
20260502T18Z_MSC_RDPS_WindDir_IsbL-0500_RLatLon0.09_PT071H.grib2 2026-05-02 21:00 535K
20260502T18Z_MSC_RDPS_WindDir_IsbL-0550_RLatLon0.09_PT071H.grib2 2026-05-02 21:00 549K
20260502T18Z_MSC_RDPS_WindDir_IsbL-0600_RLatLon0.09_PT071H.grib2 2026-05-02 21:00 576K
20260502T18Z_MSC_RDPS_WindDir_IsbL-0650_RLatLon0.09_PT071H.grib2 2026-05-02 21:00 622K
20260502T18Z_MSC_RDPS_WindDir_IsbL-0700_RLatLon0.09_PT071H.grib2 2026-05-02 21:00 665K
20260502T18Z_MSC_RDPS_WindDir_IsbL-0750_RLatLon0.09_PT071H.grib2 2026-05-02 21:00 716K
20260502T18Z_MSC_RDPS_WindDir_IsbL-0800_RLatLon0.09_PT071H.grib2 2026-05-02 21:00 784K
20260502T18Z_MSC_RDPS_WindDir_IsbL-0850_RLatLon0.09_PT071H.grib2 2026-05-02 21:00 863K
20260502T18Z_MSC_RDPS_WindDir_IsbL-0875_RLatLon0.09_PT071H.grib2 2026-05-02 21:00 888K
20260502T18Z_MSC_RDPS_WindDir_IsbL-0900_RLatLon0.09_PT071H.grib2 2026-05-02 21:00 900K
20260502T18Z_MSC_RDPS_WindDir_IsbL-0925_RLatLon0.09_PT071H.grib2 2026-05-02 21:00 905K
20260502T18Z_MSC_RDPS_WindDir_IsbL-0950_RLatLon0.09_PT071H.grib2 2026-05-02 21:00 899K
20260502T18Z_MSC_RDPS_WindDir_IsbL-0970_RLatLon0.09_PT071H.grib2 2026-05-02 21:00 904K
20260502T18Z_MSC_RDPS_WindDir_IsbL-0985_RLatLon0.09_PT071H.grib2 2026-05-02 21:00 912K
20260502T18Z_MSC_RDPS_WindDir_IsbL-1000_RLatLon0.09_PT071H.grib2 2026-05-02 21:00 927K
20260502T18Z_MSC_RDPS_WindDir_IsbL-1015_RLatLon0.09_PT071H.grib2 2026-05-02 21:00 943K
20260502T18Z_MSC_RDPS_WindGust-Max_AGL-10m_RLatLon0.09_PT071H.grib2 2026-05-02 21:00 948K
20260502T18Z_MSC_RDPS_WindGust-Min_AGL-10m_RLatLon0.09_PT071H.grib2 2026-05-02 21:00 1.0M
20260502T18Z_MSC_RDPS_WindGust_AGL-10m_RLatLon0.09_PT071H.grib2 2026-05-02 21:00 1.0M
20260502T18Z_MSC_RDPS_WindSpeed_AGL-10m_RLatLon0.09_PT071H.grib2 2026-05-02 21:00 853K
20260502T18Z_MSC_RDPS_WindSpeed_AGL-120m_RLatLon0.09_PT071H.grib2 2026-05-02 21:00 553K
20260502T18Z_MSC_RDPS_WindSpeed_AGL-40m_RLatLon0.09_PT071H.grib2 2026-05-02 21:00 549K
20260502T18Z_MSC_RDPS_WindSpeed_AGL-80m_RLatLon0.09_PT071H.grib2 2026-05-02 21:00 544K
20260502T18Z_MSC_RDPS_WindSpeed_IsbL-0001_RLatLon0.09_PT071H.grib2 2026-05-02 21:00 257K
20260502T18Z_MSC_RDPS_WindSpeed_IsbL-0005_RLatLon0.09_PT071H.grib2 2026-05-02 21:00 386K
20260502T18Z_MSC_RDPS_WindSpeed_IsbL-0010_RLatLon0.09_PT071H.grib2 2026-05-02 21:00 402K
20260502T18Z_MSC_RDPS_WindSpeed_IsbL-0020_RLatLon0.09_PT071H.grib2 2026-05-02 21:00 421K
20260502T18Z_MSC_RDPS_WindSpeed_IsbL-0030_RLatLon0.09_PT071H.grib2 2026-05-02 21:00 322K
20260502T18Z_MSC_RDPS_WindSpeed_IsbL-0050_RLatLon0.09_PT071H.grib2 2026-05-02 21:00 348K
20260502T18Z_MSC_RDPS_WindSpeed_IsbL-0100_RLatLon0.09_PT071H.grib2 2026-05-02 21:00 477K
20260502T18Z_MSC_RDPS_WindSpeed_IsbL-0150_RLatLon0.09_PT071H.grib2 2026-05-02 21:00 381K
20260502T18Z_MSC_RDPS_WindSpeed_IsbL-0175_RLatLon0.09_PT071H.grib2 2026-05-02 21:00 407K
20260502T18Z_MSC_RDPS_WindSpeed_IsbL-0200_RLatLon0.09_PT071H.grib2 2026-05-02 21:00 440K
20260502T18Z_MSC_RDPS_WindSpeed_IsbL-0225_RLatLon0.09_PT071H.grib2 2026-05-02 21:00 442K
20260502T18Z_MSC_RDPS_WindSpeed_IsbL-0250_RLatLon0.09_PT071H.grib2 2026-05-02 21:00 445K
20260502T18Z_MSC_RDPS_WindSpeed_IsbL-0275_RLatLon0.09_PT071H.grib2 2026-05-02 21:00 462K
20260502T18Z_MSC_RDPS_WindSpeed_IsbL-0300_RLatLon0.09_PT071H.grib2 2026-05-02 21:00 462K
20260502T18Z_MSC_RDPS_WindSpeed_IsbL-0350_RLatLon0.09_PT071H.grib2 2026-05-02 21:00 474K
20260502T18Z_MSC_RDPS_WindSpeed_IsbL-0400_RLatLon0.09_PT071H.grib2 2026-05-02 21:00 476K
20260502T18Z_MSC_RDPS_WindSpeed_IsbL-0450_RLatLon0.09_PT071H.grib2 2026-05-02 21:00 458K
20260502T18Z_MSC_RDPS_WindSpeed_IsbL-0500_RLatLon0.09_PT071H.grib2 2026-05-02 21:00 460K
20260502T18Z_MSC_RDPS_WindSpeed_IsbL-0550_RLatLon0.09_PT071H.grib2 2026-05-02 21:00 461K
20260502T18Z_MSC_RDPS_WindSpeed_IsbL-0600_RLatLon0.09_PT071H.grib2 2026-05-02 21:00 587K
20260502T18Z_MSC_RDPS_WindSpeed_IsbL-0650_RLatLon0.09_PT071H.grib2 2026-05-02 21:00 607K
20260502T18Z_MSC_RDPS_WindSpeed_IsbL-0700_RLatLon0.09_PT071H.grib2 2026-05-02 21:00 675K
20260502T18Z_MSC_RDPS_WindSpeed_IsbL-0750_RLatLon0.09_PT071H.grib2 2026-05-02 21:00 708K
20260502T18Z_MSC_RDPS_WindSpeed_IsbL-0800_RLatLon0.09_PT071H.grib2 2026-05-02 21:00 762K
20260502T18Z_MSC_RDPS_WindSpeed_IsbL-0850_RLatLon0.09_PT071H.grib2 2026-05-02 21:00 830K
20260502T18Z_MSC_RDPS_WindSpeed_IsbL-0875_RLatLon0.09_PT071H.grib2 2026-05-02 21:00 807K
20260502T18Z_MSC_RDPS_WindSpeed_IsbL-0900_RLatLon0.09_PT071H.grib2 2026-05-02 21:00 819K
20260502T18Z_MSC_RDPS_WindSpeed_IsbL-0925_RLatLon0.09_PT071H.grib2 2026-05-02 21:00 827K
20260502T18Z_MSC_RDPS_WindSpeed_IsbL-0950_RLatLon0.09_PT071H.grib2 2026-05-02 21:00 825K
20260502T18Z_MSC_RDPS_WindSpeed_IsbL-0970_RLatLon0.09_PT071H.grib2 2026-05-02 21:00 871K
20260502T18Z_MSC_RDPS_WindSpeed_IsbL-0985_RLatLon0.09_PT071H.grib2 2026-05-02 21:00 867K
20260502T18Z_MSC_RDPS_WindSpeed_IsbL-1000_RLatLon0.09_PT071H.grib2 2026-05-02 21:00 864K
20260502T18Z_MSC_RDPS_WindSpeed_IsbL-1015_RLatLon0.09_PT071H.grib2 2026-05-02 21:00 853K
20260502T18Z_MSC_RDPS_WindU_AGL-10m_RLatLon0.09_PT071H.grib2 2026-05-02 21:00 439K
20260502T18Z_MSC_RDPS_WindU_AGL-120m_RLatLon0.09_PT071H.grib2 2026-05-02 21:00 421K
20260502T18Z_MSC_RDPS_WindU_AGL-40m_RLatLon0.09_PT071H.grib2 2026-05-02 21:00 542K
20260502T18Z_MSC_RDPS_WindU_AGL-80m_RLatLon0.09_PT071H.grib2 2026-05-02 21:00 422K
20260502T18Z_MSC_RDPS_WindU_IsbL-0001_RLatLon0.09_PT071H.grib2 2026-05-02 21:00 295K
20260502T18Z_MSC_RDPS_WindU_IsbL-0005_RLatLon0.09_PT071H.grib2 2026-05-02 21:00 284K
20260502T18Z_MSC_RDPS_WindU_IsbL-0010_RLatLon0.09_PT071H.grib2 2026-05-02 21:00 297K
20260502T18Z_MSC_RDPS_WindU_IsbL-0020_RLatLon0.09_PT071H.grib2 2026-05-02 21:00 312K
20260502T18Z_MSC_RDPS_WindU_IsbL-0030_RLatLon0.09_PT071H.grib2 2026-05-02 21:00 352K
20260502T18Z_MSC_RDPS_WindU_IsbL-0050_RLatLon0.09_PT071H.grib2 2026-05-02 21:00 379K
20260502T18Z_MSC_RDPS_WindU_IsbL-0100_RLatLon0.09_PT071H.grib2 2026-05-02 21:00 334K
20260502T18Z_MSC_RDPS_WindU_IsbL-0150_RLatLon0.09_PT071H.grib2 2026-05-02 21:00 395K
20260502T18Z_MSC_RDPS_WindU_IsbL-0175_RLatLon0.09_PT071H.grib2 2026-05-02 21:00 420K
20260502T18Z_MSC_RDPS_WindU_IsbL-0200_RLatLon0.09_PT071H.grib2 2026-05-02 21:00 335K
20260502T18Z_MSC_RDPS_WindU_IsbL-0225_RLatLon0.09_PT071H.grib2 2026-05-02 21:00 336K
20260502T18Z_MSC_RDPS_WindU_IsbL-0250_RLatLon0.09_PT071H.grib2 2026-05-02 21:00 337K
20260502T18Z_MSC_RDPS_WindU_IsbL-0275_RLatLon0.09_PT071H.grib2 2026-05-02 21:00 351K
20260502T18Z_MSC_RDPS_WindU_IsbL-0300_RLatLon0.09_PT071H.grib2 2026-05-02 21:00 350K
20260502T18Z_MSC_RDPS_WindU_IsbL-0350_RLatLon0.09_PT071H.grib2 2026-05-02 21:00 359K
20260502T18Z_MSC_RDPS_WindU_IsbL-0400_RLatLon0.09_PT071H.grib2 2026-05-02 21:00 361K
20260502T18Z_MSC_RDPS_WindU_IsbL-0450_RLatLon0.09_PT071H.grib2 2026-05-02 21:00 463K
20260502T18Z_MSC_RDPS_WindU_IsbL-0500_RLatLon0.09_PT071H.grib2 2026-05-02 21:00 465K
20260502T18Z_MSC_RDPS_WindU_IsbL-0550_RLatLon0.09_PT071H.grib2 2026-05-02 21:00 466K
20260502T18Z_MSC_RDPS_WindU_IsbL-0600_RLatLon0.09_PT071H.grib2 2026-05-02 21:00 476K
20260502T18Z_MSC_RDPS_WindU_IsbL-0650_RLatLon0.09_PT071H.grib2 2026-05-02 21:00 479K
20260502T18Z_MSC_RDPS_WindU_IsbL-0700_RLatLon0.09_PT071H.grib2 2026-05-02 21:00 502K
20260502T18Z_MSC_RDPS_WindU_IsbL-0750_RLatLon0.09_PT071H.grib2 2026-05-02 21:00 530K
20260502T18Z_MSC_RDPS_WindU_IsbL-0800_RLatLon0.09_PT071H.grib2 2026-05-02 21:00 577K
20260502T18Z_MSC_RDPS_WindU_IsbL-0850_RLatLon0.09_PT071H.grib2 2026-05-02 21:00 645K
20260502T18Z_MSC_RDPS_WindU_IsbL-0875_RLatLon0.09_PT071H.grib2 2026-05-02 21:00 663K
20260502T18Z_MSC_RDPS_WindU_IsbL-0900_RLatLon0.09_PT071H.grib2 2026-05-02 21:00 671K
20260502T18Z_MSC_RDPS_WindU_IsbL-0925_RLatLon0.09_PT071H.grib2 2026-05-02 21:00 675K
20260502T18Z_MSC_RDPS_WindU_IsbL-0950_RLatLon0.09_PT071H.grib2 2026-05-02 21:00 663K
20260502T18Z_MSC_RDPS_WindU_IsbL-0970_RLatLon0.09_PT071H.grib2 2026-05-02 21:00 659K
20260502T18Z_MSC_RDPS_WindU_IsbL-0985_RLatLon0.09_PT071H.grib2 2026-05-02 21:00 656K
20260502T18Z_MSC_RDPS_WindU_IsbL-1000_RLatLon0.09_PT071H.grib2 2026-05-02 21:00 794K
20260502T18Z_MSC_RDPS_WindU_IsbL-1015_RLatLon0.09_PT071H.grib2 2026-05-02 21:00 791K
20260502T18Z_MSC_RDPS_WindV_AGL-10m_RLatLon0.09_PT071H.grib2 2026-05-02 21:00 440K
20260502T18Z_MSC_RDPS_WindV_AGL-120m_RLatLon0.09_PT071H.grib2 2026-05-02 21:00 420K
20260502T18Z_MSC_RDPS_WindV_AGL-40m_RLatLon0.09_PT071H.grib2 2026-05-02 21:00 543K
20260502T18Z_MSC_RDPS_WindV_AGL-80m_RLatLon0.09_PT071H.grib2 2026-05-02 21:00 422K
20260502T18Z_MSC_RDPS_WindV_IsbL-0001_RLatLon0.09_PT071H.grib2 2026-05-02 21:00 251K
20260502T18Z_MSC_RDPS_WindV_IsbL-0005_RLatLon0.09_PT071H.grib2 2026-05-02 21:00 289K
20260502T18Z_MSC_RDPS_WindV_IsbL-0010_RLatLon0.09_PT071H.grib2 2026-05-02 21:00 301K
20260502T18Z_MSC_RDPS_WindV_IsbL-0020_RLatLon0.09_PT071H.grib2 2026-05-02 21:00 317K
20260502T18Z_MSC_RDPS_WindV_IsbL-0030_RLatLon0.09_PT071H.grib2 2026-05-02 21:00 316K
20260502T18Z_MSC_RDPS_WindV_IsbL-0050_RLatLon0.09_PT071H.grib2 2026-05-02 21:00 345K
20260502T18Z_MSC_RDPS_WindV_IsbL-0100_RLatLon0.09_PT071H.grib2 2026-05-02 21:00 333K
20260502T18Z_MSC_RDPS_WindV_IsbL-0150_RLatLon0.09_PT071H.grib2 2026-05-02 21:00 394K
20260502T18Z_MSC_RDPS_WindV_IsbL-0175_RLatLon0.09_PT071H.grib2 2026-05-02 21:00 323K
20260502T18Z_MSC_RDPS_WindV_IsbL-0200_RLatLon0.09_PT071H.grib2 2026-05-02 21:00 334K
20260502T18Z_MSC_RDPS_WindV_IsbL-0225_RLatLon0.09_PT071H.grib2 2026-05-02 21:00 336K
20260502T18Z_MSC_RDPS_WindV_IsbL-0250_RLatLon0.09_PT071H.grib2 2026-05-02 21:00 363K
20260502T18Z_MSC_RDPS_WindV_IsbL-0275_RLatLon0.09_PT071H.grib2 2026-05-02 21:00 375K
20260502T18Z_MSC_RDPS_WindV_IsbL-0300_RLatLon0.09_PT071H.grib2 2026-05-02 21:00 374K
20260502T18Z_MSC_RDPS_WindV_IsbL-0350_RLatLon0.09_PT071H.grib2 2026-05-02 21:00 357K
20260502T18Z_MSC_RDPS_WindV_IsbL-0400_RLatLon0.09_PT071H.grib2 2026-05-02 21:00 360K
20260502T18Z_MSC_RDPS_WindV_IsbL-0450_RLatLon0.09_PT071H.grib2 2026-05-02 21:00 361K
20260502T18Z_MSC_RDPS_WindV_IsbL-0500_RLatLon0.09_PT071H.grib2 2026-05-02 21:00 464K
20260502T18Z_MSC_RDPS_WindV_IsbL-0550_RLatLon0.09_PT071H.grib2 2026-05-02 21:00 466K
20260502T18Z_MSC_RDPS_WindV_IsbL-0600_RLatLon0.09_PT071H.grib2 2026-05-02 21:00 473K
20260502T18Z_MSC_RDPS_WindV_IsbL-0650_RLatLon0.09_PT071H.grib2 2026-05-02 21:00 474K
20260502T18Z_MSC_RDPS_WindV_IsbL-0700_RLatLon0.09_PT071H.grib2 2026-05-02 21:00 496K
20260502T18Z_MSC_RDPS_WindV_IsbL-0750_RLatLon0.09_PT071H.grib2 2026-05-02 21:00 538K
20260502T18Z_MSC_RDPS_WindV_IsbL-0800_RLatLon0.09_PT071H.grib2 2026-05-02 21:00 582K
20260502T18Z_MSC_RDPS_WindV_IsbL-0850_RLatLon0.09_PT071H.grib2 2026-05-02 21:00 631K
20260502T18Z_MSC_RDPS_WindV_IsbL-0875_RLatLon0.09_PT071H.grib2 2026-05-02 21:00 652K
20260502T18Z_MSC_RDPS_WindV_IsbL-0900_RLatLon0.09_PT071H.grib2 2026-05-02 21:00 662K
20260502T18Z_MSC_RDPS_WindV_IsbL-0925_RLatLon0.09_PT071H.grib2 2026-05-02 21:00 667K
20260502T18Z_MSC_RDPS_WindV_IsbL-0950_RLatLon0.09_PT071H.grib2 2026-05-02 21:00 663K
20260502T18Z_MSC_RDPS_WindV_IsbL-0970_RLatLon0.09_PT071H.grib2 2026-05-02 21:00 661K
20260502T18Z_MSC_RDPS_WindV_IsbL-0985_RLatLon0.09_PT071H.grib2 2026-05-02 21:00 659K
20260502T18Z_MSC_RDPS_WindV_IsbL-1000_RLatLon0.09_PT071H.grib2 2026-05-02 21:00 657K
20260502T18Z_MSC_RDPS_WindV_IsbL-1015_RLatLon0.09_PT071H.grib2 2026-05-02 21:00 791K